SL-12 DEB, 43541

Orbit data source: Space-Track

SL-12 DEB, 43541 is space debris in HEO originally from a launch on Fri, 26 Oct 2007 UTC launched from the Tyuratam Missile And Space Complex (TTMTR). Debris objects in space refer to the collection of defunct objects orbiting the Earth. Examples of debris include non-operational satellites, rocket bodies, and fragments generated from explosions, collisions, or faulty payload assembly.

Loading next visibility...
Identifier
43541, 2007-052AH
Orbit
HEO
Country
Flag of CISCIS
Related business
Manufacturer
RKKE
Mission
Spacecraft
Bus & Motor
Unknown
Mass
Unknown
Launch date (UTC)
2007-10-26 (18 years ago)
Launch vehicle
Unknown
Launch site
Tyuratam Missile And Space Complex (TTMTR)
Object type
Payload
Rocket body
Debris
Shape & HBR
Unknown shape, 0.7 m
Radar Cross Section
Medium (>0.1 m² and <1 m²)

Expand to show TLE details & history
Last TLE update: 1 day ago

TLE from 1 day ago
0 SL-12 DEB
1 43541U 07052AH  25340.60430729  .00000705  00000-0  25369-2 0  9995
2 43541  65.1773 345.7438 5691161 219.7371  80.4535  4.26034443115441
Epoch: 2025-12-06T14:30Z
TLE epoch observation values (Epoch: 2025-12-06T14:30:12.149Z)
Latitude
0.00005°
Longitude
52.55296°
Altitude
12,950.148 km
Speed
4.056 km/s
True Right ascension
23h 02m 55s
True Declination
0° 00' 00"
Sunlit
Object was in daylight at epoch
Visualization orbit readout
Latitude
Unknown
Longitude
Unknown
Altitude
Unknown
Speed
Unknown
Apparent Right ascension
Unknown
Apparent Declination
Unknown
Sunlit
N/A
Visualization observer readout
Local Sidereal Time
13:05:09
Azimuth
Unknown
Elevation
Unknown
Doppler factor
Unknown
Orbital elements
Apogee altitude
18,840.948 km
Perigee altitude
547.098 km
Semi-major axis
16,072.16 km
Eccentricity
0.56912
Inclination
65.1773°
RAAN
345.7438°
Arg. of periapsis
219.7371°
True anomaly
140.3275°
Mean anomaly
80.4535°
Eccentric anomaly
110.91329°
Mean motion
1.0652 °/min
Orbital period
337.96 mins
BSTAR
0.0025369
Loading maneuver chart data...
Computing Atmospheric mass density...
Loading historical data...
Loading historical data...
Loading historical data...
Loading historical data...
Loading historical data...
Loading historical data...
Loading historical data...

Documentation

Showing up to 5 results
|